GW6104 Weather Reports


time (UTC)temp
C
wind
direction
speed
KPH
gust
KPH
rain 1hr
cm
rain 24hr
cm
rain mn
cm
humidity
%
barometer
mb
20260508014528 19 13 1.6 11.3 0.00 0.00 0.00 45 1016.7
20260508013024 19 333 3.2 9.7 0.00 0.00 0.00 50 1016.6
20260508011520 19 44 3.2 8.0 0.00 0.00 0.00 46 1016.7
20260508010024 19 344 3.2 8.0 0.00 0.00 0.00 47 1016.8
20260508004529 19 344 1.6 12.9 0.00 0.00 0.00 48 1016.9
20260508003012 20 263 1.6 9.7 0.00 0.00 0.00 48 1017.2
20260508001510 20 344 4.8 8.0 0.00 0.00 0.00 50 1017.3
20260508000026 20 192 1.6 11.3 0.00 0.00 0.00 47 1017.3
20260507234529 20 218 1.6 8.0 0.00 0.00 0.00 47 1017.4
20260507233025 20 336 6.4 16.1 0.00 0.00 0.00 49 1017.6
20260507231527 20 252 6.4 14.5 0.00 0.00 0.00 46 1017.8
20260507230022 20 316 6.4 12.9 0.00 0.00 0.00 46 1018.0
20260507224516 20 14 6.4 12.9 0.00 0.00 0.00 40 1018.3
20260507223016 19 150 1.6 8.0 0.00 0.00 0.00 38 1018.5
20260507221512 19 323 1.6 6.4 0.00 0.00 0.00 40 1018.8
20260507220025 19 293 3.2 11.3 0.00 0.00 0.00 50 1019.1
20260507214523 18 258 4.8 9.7 0.00 0.00 0.00 48 1019.1
20260507213021 17 315 3.2 14.5 0.00 0.00 0.00 52 1019.3
20260507211521 17 72 1.6 6.4 0.00 0.00 0.00 51 1019.4
20260507210017 17 302 3.2 11.3 0.00 0.00 0.00 53 1019.8
20260507204520 17 296 3.2 6.4 0.00 0.00 0.00 62 1019.9
20260507203020 16 337 4.8 8.0 0.00 0.00 0.00 54 1020.1
20260507201518 16 348 6.4 12.9 0.00 0.00 0.00 54 1020.2
20260507200024 16 322 6.4 12.9 0.00 0.00 0.00 60 1020.4
20260507194523 16 319 3.2 12.9 0.00 0.00 0.00 59 1020.5
20260507193026 16 263 4.8 14.5 0.00 0.00 0.00 62 1020.7
20260507191529 16 339 1.6 6.4 0.00 0.00 0.00 64 1020.7
20260507190028 15 234 3.2 9.7 0.00 0.00 0.00 65 1020.9
20260507184522 15 286 3.2 6.4 0.00 0.00 0.00 61 1021.0
20260507183012 14 22 1.6 8.0 0.00 0.00 0.00 68 1021.1
20260507181504 13 325 0.0 11.3 0.00 0.00 0.00 64 1021.4
20260507180018 13 21 1.6 6.4 0.00 0.00 0.00 67 1021.4
20260507174514 12 184 1.6 4.8 0.00 0.00 0.00 66 1021.5
20260507173011 13 352 4.8 11.3 0.00 0.00 0.00 66 1021.7
20260507171510 13 65 0.0 6.4 0.00 0.00 0.00 65 1021.8
20260507170008 12 26 3.2 8.0 0.00 0.00 0.00 70 1021.8
20260507164508 12 329 3.2 8.0 0.00 0.00 0.00 69 1021.7
20260507163008 11 44 3.2 8.0 0.00 0.00 0.00 70 1021.7
20260507161520 11 333 4.8 9.7 0.00 0.00 0.00 73 1021.8
20260507160028 11 360 4.8 12.9 0.00 0.00 0.00 73 1021.7
20260507154519 10 248 3.2 9.7 0.00 0.00 0.00 73 1021.7
20260507153016 10 336 6.4 16.1 0.00 0.00 0.00 74 1021.9
20260507151513 10 31 6.4 14.5 0.00 0.00 0.00 76 1021.8
20260507150013 10 296 1.6 12.9 0.00 0.00 0.00 76 1021.7
20260507144528 9 320 6.4 14.5 0.00 0.00 0.00 76 1021.7
20260507143038 9 276 4.8 9.7 0.00 0.00 0.00 76 1021.8
20260507141520 9 337 4.8 17.7 0.00 0.00 0.00 75 1021.8
20260507140020 9 30 8.0 16.1 0.00 0.00 0.00 76 1021.6
20260507134514 9 267 4.8 14.5 0.00 0.00 0.00 77 1021.4
20260507133010 9 335 3.2 12.9 0.00 0.00 0.00 77 1021.2
20260507131512 9 343 4.8 16.1 0.00 0.00 0.00 77 1021.1
20260507130029 9 347 8.0 16.1 0.00 0.00 0.00 77 1021.1
20260507124525 9 308 3.2 14.5 0.00 0.00 0.00 77 1021.2
20260507123023 9 31 6.4 16.1 0.00 0.00 0.00 77 1021.2
20260507121520 9 338 6.4 14.5 0.00 0.00 0.00 77 1021.3
20260507120016 9 336 4.8 14.5 0.00 0.00 0.00 77 1021.4
20260507114521 9 294 6.4 12.9 0.00 0.00 0.00 78 1021.4
20260507113019 9 16 4.8 16.1 0.00 0.00 0.00 77 1021.6
20260507111516 9 331 3.2 8.0 0.00 0.00 0.00 78 1021.5
20260507110015 10 325 6.4 14.5 0.00 0.00 0.00 77 1021.6
20260507104525 10 309 6.4 14.5 0.00 0.00 0.00 77 1021.6
20260507103020 10 28 8.0 17.7 0.00 0.00 0.00 76 1021.8
20260507101518 10 323 6.4 16.1 0.00 0.00 0.00 76 1021.9
20260507100034 10 320 4.8 17.7 0.00 0.00 0.00 76 1021.9
20260507094521 10 298 8.0 17.7 0.00 0.00 0.00 76 1022.0
20260507093022 10 336 4.8 16.1 0.00 0.00 0.00 76 1022.0
20260507091522 11 325 3.2 12.9 0.00 0.00 0.00 77 1022.2
20260507090017 11 337 6.4 17.7 0.00 0.00 0.00 76 1022.3
20260507084521 11 350 3.2 12.9 0.00 0.00 0.00 77 1022.2
20260507083017 11 333 4.8 11.3 0.00 0.00 0.00 78 1022.2
20260507081529 11 313 8.0 19.3 0.00 0.00 0.00 78 1022.2
20260507080025 11 321 6.4 14.5 0.00 0.00 0.00 77 1022.1
20260507074525 11 338 1.6 6.4 0.00 0.00 0.00 77 1022.1
20260507073024 11 294 4.8 9.7 0.00 0.00 0.00 77 1022.1
20260507071528 11 351 1.6 9.7 0.00 0.00 0.00 77 1022.0
20260507070026 11 324 3.2 14.5 0.00 0.00 0.00 77 1021.9
20260507064550 11 280 1.6 14.5 0.00 0.00 0.00 77 1022.0
20260507063034 11 306 8.0 14.5 0.00 0.00 0.00 77 1022.1
20260507061529 11 347 6.4 14.5 0.00 0.00 0.00 78 1022.2
20260507060029 11 317 6.4 17.7 0.00 0.00 0.00 78 1022.1
20260507054525 11 328 8.0 17.7 0.00 0.00 0.00 78 1022.1
20260507053025 11 325 9.7 16.1 0.00 0.00 0.00 78 1022.2
20260507051522 11 5 4.8 14.5 0.00 0.00 0.00 79 1022.2
20260507050038 11 309 3.2 14.5 0.00 0.00 0.00 78 1022.2
20260507044513 12 9 6.4 14.5 0.00 0.00 0.00 78 1022.2
20260507043010 12 9 8.0 17.7 0.00 0.00 0.00 77 1022.2
20260507041520 12 351 9.7 24.1 0.00 0.00 0.00 76 1022.0
20260507040011 12 334 8.0 25.7 0.00 0.00 0.00 76 1022.0
20260507034508 12 304 9.7 22.5 0.00 0.00 0.00 75 1021.8
20260507033025 13 343 9.7 29.0 0.00 0.00 0.00 75 1021.7
20260507031520 13 352 8.0 27.4 0.00 0.00 0.00 74 1021.5
20260507030025 13 11 9.7 17.7 0.00 0.00 0.00 75 1021.3
20260507024519 13 325 9.7 19.3 0.00 0.00 0.00 74 1021.1
20260507023008 14 324 11.3 24.1 0.00 0.00 0.00 73 1021.0
20260507021515 15 9 8.0 19.3 0.00 0.00 0.00 73 1021.0
20260507020012 15 9 6.4 19.3 0.00 0.00 0.00 74 1021.1